Preview of NWS' New Version of Forecast
This preview is not operational and should not be used for support decisions.

Regional Weather Roundup (RWR)

Issued by National Weather Service (NWS)

                            
000
ASCA42 TJSJ 190010
RWRPR 
PUERTO RICO/U.S. VIRGIN ISLANDS HOURLY WEATHER ROUNDUP
NATIONAL WEATHER SERVICE SAN JUAN PR
800 PM AST SAT MAY 18 2019

PRZ001>002-007>008-010-190100-
PUERTO RICO
  
CITY           SKY/WX    TMP DP  RH WIND       PRES   REMARKS
SAN JUAN LMM   PTCLDY    82  73  74 E9        29.96R                  
AGUADILLA      PTCLDY    79  73  83 E9        29.97R                  
CEIBA          CLEAR     82  72  69 E6        29.98R                  
$$

VIZ001>002-190100-
U.S. VIRGIN ISLANDS
  
CITY           SKY/WX    TMP DP  RH WIND       PRES   REMARKS
CHARLOTTE AMA  CLEAR     82  70  65 E10       29.96R                  
CHRISTIANSTED  PTCLDY    79  72  78 NE5       29.98R                  
$$

HOURLY WEATHER ROUNDUP FOR THE NEWS MEDIA
  
CITY           SKY/WX    TMP DP  RH WIND       PRES   REMARKS
ORLANDO        FAIR      79  58  48 E12       30.00R                  
NEW YORK       MOCLDY    59  49  69 S10       30.03R                  
NEWARK         MOCLDY    68  47  46 SE6       30.00R                  
CHICAGO        PTSUNNY   69  63  81 CALM      29.71S                  
HARTFORD       FAIR      56  50  80 SE8       30.03R                  
BOSTON         CLOUDY    59  45  59 E14       30.02R                  
DALLAS         CLOUDY    74  66  76 SE10      29.63S                  
PHILADELPHIA   FAIR      74  58  57 S9        30.00R                  
LOS ANGELES    CLOUDY    64  54  69 W9        29.93F                  
WASHINGTON DC  MOCLDY    80  65  59 S9        29.97R